| time (UTC) | temp F | wind direction | speed knots | gust knots | rain 1hr in | rain 24hr in | rain mn in | humidity % | barometer mb |
| 20260510194010 | 88 | 250 | 4.3 | 13.9 | 0.00 | 0.02 | 0.00 | 71 | 1016.7 |
| 20260510193514 | 88 | 304 | 7.0 | 13.9 | 0.00 | 0.02 | 0.00 | 72 | 1016.7 |
| 20260510193026 | 88 | 273 | 7.8 | 13.9 | 0.00 | 0.02 | 0.00 | 72 | 1016.7 |
| 20260510192510 | 88 | 257 | 6.1 | 13.9 | 0.00 | 0.02 | 0.00 | 72 | 1016.8 |
| 20260510192014 | 88 | 282 | 5.2 | 13.9 | 0.00 | 0.02 | 0.00 | 71 | 1016.8 |
| 20260510191527 | 88 | 282 | 7.0 | 13.9 | 0.00 | 0.02 | 0.00 | 71 | 1016.7 |
| 20260510191008 | 88 | 265 | 7.8 | 14.8 | 0.00 | 0.02 | 0.00 | 71 | 1016.6 |
| 20260510190511 | 88 | 274 | 9.6 | 14.8 | 0.00 | 0.02 | 0.00 | 70 | 1016.7 |
| 20260510190025 | 89 | 271 | 8.7 | 16.5 | 0.00 | 0.02 | 0.00 | 71 | 1016.6 |
| 20260510185510 | 88 | 292 | 8.7 | 17.4 | 0.00 | 0.02 | 0.00 | 71 | 1016.6 |
| 20260510185011 | 89 | 325 | 7.8 | 17.4 | 0.00 | 0.02 | 0.00 | 70 | 1016.7 |
| 20260510184505 | 89 | 261 | 6.1 | 13.9 | 0.00 | 0.02 | 0.00 | 71 | 1016.6 |
| 20260510184010 | 89 | 306 | 4.3 | 14.8 | 0.00 | 0.02 | 0.00 | 70 | 1016.7 |
| 20260510183504 | 89 | 340 | 7.0 | 14.8 | 0.00 | 0.02 | 0.00 | 70 | 1016.8 |
| 20260510183026 | 88 | 279 | 5.2 | 10.4 | 0.00 | 0.02 | 0.00 | 71 | 1016.8 |
| 20260510182510 | 88 | 298 | 5.2 | 13.9 | 0.00 | 0.02 | 0.00 | 70 | 1016.8 |
| 20260510182003 | 89 | 284 | 8.7 | 16.5 | 0.00 | 0.02 | 0.00 | 71 | 1016.9 |
| 20260510181522 | 89 | 247 | 4.3 | 16.5 | 0.00 | 0.02 | 0.00 | 71 | 1017.0 |
| 20260510181008 | 88 | 287 | 8.7 | 13.9 | 0.00 | 0.02 | 0.00 | 71 | 1017.1 |
| 20260510180504 | 89 | 265 | 4.3 | 11.3 | 0.00 | 0.02 | 0.00 | 70 | 1017.1 |
| 20260510180020 | 89 | 278 | 6.1 | 12.2 | 0.00 | 0.02 | 0.00 | 69 | 1017.0 |
| 20260510175504 | 91 | 255 | 5.2 | 13.9 | 0.00 | 0.02 | 0.00 | 68 | 1017.0 |
| 20260510175003 | 91 | 284 | 5.2 | 13.9 | 0.00 | 0.02 | 0.00 | 70 | 1017.0 |
| 20260510174514 | 90 | 315 | 6.1 | 13.9 | 0.00 | 0.02 | 0.00 | 69 | 1017.0 |
| 20260510174009 | 90 | 285 | 7.0 | 13.0 | 0.00 | 0.02 | 0.00 | 70 | 1017.2 |
| 20260510173514 | 90 | 266 | 4.3 | 13.0 | 0.00 | 0.02 | 0.00 | 70 | 1017.3 |
| 20260510173011 | 90 | 284 | 7.0 | 13.0 | 0.00 | 0.02 | 0.00 | 70 | 1017.3 |
| 20260510172510 | 90 | 300 | 5.2 | 15.6 | 0.00 | 0.02 | 0.00 | 70 | 1017.3 |
| 20260510172012 | 90 | 238 | 7.0 | 15.6 | 0.00 | 0.02 | 0.00 | 70 | 1017.5 |
| 20260510171510 | 91 | 259 | 8.7 | 14.8 | 0.00 | 0.02 | 0.00 | 69 | 1017.6 |
| 20260510171007 | 91 | 304 | 8.7 | 15.6 | 0.00 | 0.02 | 0.00 | 69 | 1017.5 |
| 20260510170507 | 91 | 263 | 8.7 | 15.6 | 0.00 | 0.02 | 0.00 | 69 | 1017.4 |
| 20260510170007 | 91 | 267 | 6.1 | 13.0 | 0.00 | 0.02 | 0.00 | 69 | 1017.4 |
| 20260510165505 | 91 | 267 | 7.0 | 13.9 | 0.00 | 0.02 | 0.00 | 69 | 1017.4 |
| 20260510165006 | 91 | 277 | 8.7 | 13.9 | 0.00 | 0.02 | 0.00 | 69 | 1017.5 |
| 20260510164529 | 91 | 294 | 5.2 | 12.2 | 0.00 | 0.02 | 0.00 | 67 | 1017.5 |
| 20260510164007 | 91 | 271 | 6.1 | 14.8 | 0.00 | 0.02 | 0.00 | 65 | 1017.5 |
| 20260510163507 | 92 | 272 | 8.7 | 14.8 | 0.00 | 0.02 | 0.00 | 68 | 1017.4 |
| 20260510163024 | 91 | 300 | 5.2 | 13.0 | 0.00 | 0.02 | 0.00 | 69 | 1017.4 |
| 20260510162506 | 91 | 303 | 7.0 | 13.0 | 0.00 | 0.02 | 0.00 | 67 | 1017.3 |
| 20260510162005 | 91 | 276 | 5.2 | 11.3 | 0.00 | 0.02 | 0.00 | 67 | 1017.4 |
| 20260510161517 | 91 | 268 | 2.6 | 12.2 | 0.00 | 0.02 | 0.00 | 65 | 1017.4 |
| 20260510161008 | 90 | 268 | 6.1 | 12.2 | 0.00 | 0.02 | 0.00 | 68 | 1017.4 |
| 20260510160507 | 90 | 311 | 4.3 | 8.7 | 0.00 | 0.02 | 0.00 | 69 | 1017.4 |
| 20260510160016 | 90 | 309 | 4.3 | 8.7 | 0.00 | 0.02 | 0.00 | 65 | 1017.5 |
| 20260510155506 | 89 | 223 | 3.5 | 8.7 | 0.00 | 0.02 | 0.00 | 65 | 1017.5 |
| 20260510155011 | 90 | 246 | 4.3 | 13.9 | 0.00 | 0.02 | 0.00 | 66 | 1017.6 |
| 20260510154512 | 90 | 301 | 9.6 | 13.9 | 0.00 | 0.02 | 0.00 | 66 | 1017.5 |
| 20260510154003 | 89 | 261 | 4.3 | 10.4 | 0.00 | 0.02 | 0.00 | 67 | 1017.5 |
| 20260510153511 | 89 | 242 | 1.7 | 9.6 | 0.00 | 0.02 | 0.00 | 69 | 1017.4 |
| 20260510153018 | 88 | 265 | 4.3 | 9.6 | 0.00 | 0.02 | 0.00 | 68 | 1017.4 |
| 20260510152512 | 88 | 198 | 1.7 | 8.7 | 0.00 | 0.02 | 0.00 | 66 | 1017.3 |
| 20260510152011 | 87 | 258 | 2.6 | 11.3 | 0.00 | 0.02 | 0.00 | 67 | 1017.3 |
| 20260510151514 | 88 | 218 | 4.3 | 11.3 | 0.00 | 0.02 | 0.00 | 66 | 1017.3 |
| 20260510151007 | 88 | 234 | 5.2 | 11.3 | 0.00 | 0.02 | 0.00 | 66 | 1017.3 |
| 20260510150506 | 88 | 240 | 4.3 | 9.6 | 0.00 | 0.02 | 0.00 | 66 | 1017.4 |
| 20260510150012 | 88 | 183 | 4.3 | 8.7 | 0.00 | 0.02 | 0.00 | 67 | 1017.4 |
| 20260510145508 | 87 | 285 | 3.5 | 8.7 | 0.00 | 0.02 | 0.00 | 69 | 1017.3 |
| 20260510145006 | 86 | 277 | 1.7 | 9.6 | 0.00 | 0.02 | 0.00 | 70 | 1017.2 |
| 20260510144535 | 86 | 281 | 5.2 | 9.6 | 0.00 | 0.02 | 0.00 | 70 | 1017.3 |
| 20260510144008 | 86 | 279 | 3.5 | 11.3 | 0.00 | 0.02 | 0.00 | 69 | 1017.4 |
| 20260510143504 | 86 | 200 | 3.5 | 11.3 | 0.00 | 0.02 | 0.00 | 72 | 1017.4 |
| 20260510143026 | 85 | 222 | 6.1 | 10.4 | 0.00 | 0.02 | 0.00 | 72 | 1017.4 |
| 20260510142512 | 85 | 210 | 2.6 | 9.6 | 0.00 | 0.02 | 0.00 | 75 | 1017.4 |
| 20260510142013 | 84 | 212 | 3.5 | 11.3 | 0.00 | 0.02 | 0.00 | 75 | 1017.3 |
| 20260510141515 | 83 | 219 | 5.2 | 11.3 | 0.00 | 0.02 | 0.00 | 76 | 1017.1 |
| 20260510141009 | 83 | 197 | 3.5 | 9.6 | 0.00 | 0.02 | 0.00 | 77 | 1017.1 |
| 20260510140512 | 83 | 157 | 5.2 | 9.6 | 0.00 | 0.02 | 0.00 | 77 | 1017.2 |
| 20260510140016 | 82 | 207 | 3.5 | 9.6 | 0.00 | 0.02 | 0.00 | 78 | 1017.2 |
| 20260510135506 | 82 | 171 | 5.2 | 10.4 | 0.00 | 0.02 | 0.00 | 78 | 1017.1 |
| 20260510135011 | 81 | 182 | 4.3 | 10.4 | 0.00 | 0.02 | 0.00 | 79 | 1017.0 |
| 20260510134524 | 81 | 192 | 4.3 | 9.6 | 0.00 | 0.02 | 0.00 | 79 | 1017.0 |
| 20260510134008 | 81 | 194 | 3.5 | 9.6 | 0.00 | 0.02 | 0.00 | 80 | 1017.1 |
| 20260510133508 | 80 | 163 | 6.1 | 9.6 | 0.00 | 0.02 | 0.00 | 80 | 1017.1 |
| 20260510133025 | 80 | 184 | 5.2 | 11.3 | 0.00 | 0.02 | 0.00 | 81 | 1017.2 |
| 20260510132514 | 80 | 159 | 5.2 | 11.3 | 0.00 | 0.02 | 0.00 | 80 | 1017.1 |
| 20260510132014 | 80 | 160 | 2.6 | 7.8 | 0.00 | 0.02 | 0.00 | 82 | 1017.1 |
| 20260510131519 | 79 | 162 | 2.6 | 9.6 | 0.00 | 0.02 | 0.00 | 82 | 1016.9 |
| 20260510131012 | 79 | 174 | 4.3 | 9.6 | 0.00 | 0.02 | 0.00 | 82 | 1017.1 |
| 20260510130507 | 78 | 165 | 3.5 | 8.7 | 0.00 | 0.02 | 0.00 | 83 | 1017.0 |
| 20260510130017 | 78 | 189 | 5.2 | 8.7 | 0.00 | 0.02 | 0.00 | 83 | 1016.8 |
| 20260510125508 | 78 | 134 | 5.2 | 8.7 | 0.00 | 0.02 | 0.00 | 83 | 1016.7 |
| 20260510125011 | 77 | 182 | 4.3 | 10.4 | 0.00 | 0.02 | 0.00 | 84 | 1016.8 |
| 20260510124524 | 77 | 164 | 4.3 | 10.4 | 0.00 | 0.02 | 0.00 | 84 | 1016.7 |
| 20260510124010 | 77 | 169 | 2.6 | 9.6 | 0.00 | 0.02 | 0.00 | 85 | 1016.7 |
| 20260510123510 | 76 | 136 | 5.2 | 9.6 | 0.00 | 0.02 | 0.00 | 85 | 1016.7 |
| 20260510123018 | 76 | 184 | 5.2 | 9.6 | 0.00 | 0.02 | 0.00 | 85 | 1016.7 |
| 20260510122506 | 76 | 170 | 5.2 | 8.7 | 0.00 | 0.02 | 0.00 | 86 | 1016.6 |
| 20260510122015 | 75 | 167 | 2.6 | 7.0 | 0.00 | 0.02 | 0.00 | 86 | 1016.6 |
| 20260510121529 | 75 | 173 | 3.5 | 7.8 | 0.00 | 0.02 | 0.00 | 87 | 1016.5 |
| 20260510121010 | 74 | 182 | 2.6 | 7.8 | 0.00 | 0.02 | 0.00 | 87 | 1016.4 |
| 20260510120510 | 74 | 132 | 2.6 | 7.0 | 0.00 | 0.02 | 0.00 | 87 | 1016.3 |
| 20260510120037 | 74 | 184 | 2.6 | 7.0 | 0.00 | 0.02 | 0.00 | 88 | 1016.3 |
| 20260510115511 | 74 | 160 | 3.5 | 7.0 | 0.00 | 0.02 | 0.00 | 88 | 1016.4 |
| 20260510115010 | 74 | 163 | 3.5 | 7.0 | 0.00 | 0.02 | 0.00 | 88 | 1016.2 |
| 20260510114524 | 73 | 190 | 2.6 | 7.0 | 0.00 | 0.02 | 0.00 | 89 | 1016.1 |
| 20260510114013 | 73 | 148 | 3.5 | 7.0 | 0.00 | 0.02 | 0.00 | 89 | 1016.1 |
| 20260510113510 | 73 | 159 | 3.5 | 7.0 | 0.00 | 0.02 | 0.00 | 89 | 1016.0 |
| 20260510113024 | 73 | 181 | 2.6 | 6.1 | 0.00 | 0.02 | 0.00 | 89 | 1015.9 |
| 20260510112515 | 73 | 140 | 2.6 | 7.0 | 0.00 | 0.02 | 0.00 | 89 | 1015.8 |
| 20260510112007 | 73 | 149 | 3.5 | 7.0 | 0.00 | 0.02 | 0.00 | 89 | 1015.7 |
| 20260510111521 | 73 | 182 | 2.6 | 7.0 | 0.00 | 0.02 | 0.00 | 90 | 1015.7 |
| 20260510111009 | 72 | 187 | 2.6 | 7.0 | 0.00 | 0.02 | 0.00 | 90 | 1015.7 |
| 20260510110510 | 72 | 167 | 1.7 | 5.2 | 0.00 | 0.02 | 0.00 | 90 | 1015.6 |
| 20260510110025 | 72 | 180 | 2.6 | 6.1 | 0.00 | 0.02 | 0.00 | 90 | 1015.5 |
| 20260510105510 | 72 | 167 | 2.6 | 6.1 | 0.00 | 0.02 | 0.00 | 91 | 1015.3 |
| 20260510105009 | 72 | 167 | 2.6 | 6.1 | 0.00 | 0.02 | 0.00 | 91 | 1015.2 |
| 20260510104528 | 72 | 150 | 1.7 | 4.3 | 0.00 | 0.02 | 0.00 | 91 | 1015.2 |
| 20260510104008 | 71 | 165 | 1.7 | 4.3 | 0.00 | 0.02 | 0.00 | 90 | 1015.1 |
| 20260510103510 | 71 | 166 | 0.9 | 3.5 | 0.00 | 0.02 | 0.00 | 90 | 1015.1 |
| 20260510103027 | 71 | 162 | 0.9 | 3.5 | 0.00 | 0.02 | 0.00 | 90 | 1015.1 |
| 20260510102511 | 72 | 152 | 0.9 | 2.6 | 0.00 | 0.02 | 0.00 | 90 | 1015.2 |
| 20260510102013 | 72 | 161 | 0.9 | 2.6 | 0.00 | 0.02 | 0.00 | 90 | 1015.2 |
| 20260510101529 | 72 | 173 | 0.9 | 3.5 | 0.00 | 0.02 | 0.00 | 90 | 1015.1 |
| 20260510101008 | 72 | 173 | 0.9 | 3.5 | 0.00 | 0.02 | 0.00 | 90 | 1015.1 |
| 20260510100510 | 72 | 121 | 0.9 | 1.7 | 0.00 | 0.02 | 0.00 | 90 | 1014.9 |
| 20260510100029 | 72 | 104 | 0.0 | 1.7 | 0.00 | 0.02 | 0.00 | 90 | 1014.8 |
| 20260510095507 | 72 | 147 | 0.0 | 1.7 | 0.00 | 0.02 | 0.00 | 90 | 1014.7 |
| 20260510095006 | 72 | 142 | 0.0 | 2.6 | 0.00 | 0.02 | 0.00 | 90 | 1014.7 |
| 20260510094534 | 72 | 165 | 0.0 | 3.5 | 0.00 | 0.02 | 0.00 | 90 | 1014.7 |
| 20260510094007 | 72 | 143 | 0.9 | 3.5 | 0.00 | 0.02 | 0.00 | 89 | 1014.6 |
| 20260510093509 | 72 | 164 | 0.9 | 1.7 | 0.00 | 0.02 | 0.00 | 89 | 1014.5 |
| 20260510093024 | 72 | 119 | 0.0 | 1.7 | 0.00 | 0.02 | 0.00 | 89 | 1014.6 |
| 20260510092508 | 72 | 119 | 0.0 | 1.7 | 0.00 | 0.02 | 0.00 | 89 | 1014.4 |
| 20260510092008 | 72 | 124 | 0.0 | 1.7 | 0.00 | 0.02 | 0.00 | 89 | 1014.3 |
| 20260510091523 | 72 | 127 | 0.9 | 2.6 | 0.00 | 0.02 | 0.00 | 89 | 1014.4 |
| 20260510091009 | 72 | 160 | 0.9 | 4.3 | 0.00 | 0.02 | 0.00 | 89 | 1014.3 |
| 20260510090510 | 72 | 121 | 0.9 | 3.5 | 0.00 | 0.02 | 0.00 | 89 | 1014.3 |
| 20260510090020 | 73 | 124 | 0.9 | 2.6 | 0.00 | 0.02 | 0.00 | 89 | 1014.2 |
| 20260510085507 | 73 | 114 | 0.9 | 2.6 | 0.00 | 0.02 | 0.00 | 89 | 1014.1 |
| 20260510085011 | 73 | 103 | 0.0 | 1.7 | 0.00 | 0.02 | 0.00 | 89 | 1014.1 |
| 20260510084515 | 73 | 120 | 0.9 | 1.7 | 0.00 | 0.02 | 0.00 | 88 | 1014.1 |
| 20260510084008 | 73 | 128 | 0.0 | 2.6 | 0.00 | 0.02 | 0.00 | 88 | 1014.1 |
| 20260510083512 | 73 | 149 | 0.9 | 2.6 | 0.00 | 0.02 | 0.00 | 88 | 1014.0 |
| 20260510083017 | 73 | 150 | 0.0 | 4.3 | 0.00 | 0.02 | 0.00 | 88 | 1013.9 |
| 20260510082506 | 73 | 146 | 0.9 | 4.3 | 0.00 | 0.02 | 0.00 | 88 | 1014.0 |
| 20260510082014 | 73 | 130 | 0.9 | 3.5 | 0.00 | 0.02 | 0.00 | 88 | 1013.9 |
| 20260510081528 | 73 | 106 | 0.0 | 4.3 | 0.00 | 0.02 | 0.00 | 88 | 1013.9 |
| 20260510081007 | 73 | 169 | 0.9 | 7.0 | 0.00 | 0.02 | 0.00 | 88 | 1013.9 |
| 20260510080507 | 73 | 126 | 1.7 | 7.0 | 0.00 | 0.02 | 0.00 | 88 | 1013.9 |
| 20260510080033 | 73 | 153 | 1.7 | 6.1 | 0.00 | 0.02 | 0.00 | 88 | 1013.8 |
| 20260510075511 | 73 | 149 | 1.7 | 6.1 | 0.00 | 0.02 | 0.00 | 88 | 1013.8 |
| 20260510075009 | 73 | 138 | 0.9 | 5.2 | 0.00 | 0.02 | 0.00 | 89 | 1013.8 |
| 20260510074532 | 73 | 148 | 1.7 | 5.2 | 0.00 | 0.02 | 0.00 | 89 | 1013.7 |
| 20260510074006 | 73 | 145 | 1.7 | 6.1 | 0.00 | 0.02 | 0.00 | 89 | 1013.8 |
| 20260510073508 | 73 | 148 | 1.7 | 6.1 | 0.00 | 0.02 | 0.00 | 89 | 1013.9 |
| 20260510073023 | 73 | 136 | 0.9 | 4.3 | 0.00 | 0.02 | 0.00 | 89 | 1014.0 |
| 20260510072508 | 73 | 169 | 1.7 | 4.3 | 0.00 | 0.02 | 0.00 | 89 | 1014.1 |
| 20260510072013 | 73 | 121 | 1.7 | 3.5 | 0.00 | 0.02 | 0.00 | 89 | 1014.1 |
| 20260510071521 | 73 | 151 | 0.9 | 5.2 | 0.00 | 0.02 | 0.00 | 89 | 1014.3 |
| 20260510071007 | 73 | 153 | 1.7 | 7.0 | 0.00 | 0.02 | 0.00 | 89 | 1014.3 |
| 20260510070509 | 73 | 126 | 3.5 | 7.0 | 0.00 | 0.02 | 0.00 | 89 | 1014.3 |
| 20260510070019 | 73 | 157 | 1.7 | 7.0 | 0.00 | 0.02 | 0.00 | 89 | 1014.4 |
| 20260510065512 | 73 | 153 | 4.3 | 7.0 | 0.00 | 0.02 | 0.00 | 89 | 1014.4 |
| 20260510065005 | 73 | 157 | 2.6 | 6.1 | 0.00 | 0.02 | 0.00 | 89 | 1014.3 |
| 20260510064512 | 73 | 159 | 1.7 | 5.2 | 0.00 | 0.02 | 0.00 | 90 | 1014.4 |
| 20260510064008 | 73 | 122 | 0.9 | 4.3 | 0.00 | 0.02 | 0.00 | 90 | 1014.5 |
| 20260510063504 | 73 | 117 | 0.9 | 4.3 | 0.00 | 0.02 | 0.00 | 90 | 1014.6 |
| 20260510063013 | 73 | 155 | 0.9 | 4.3 | 0.00 | 0.02 | 0.00 | 90 | 1014.7 |
| 20260510062507 | 73 | 139 | 0.9 | 2.6 | 0.00 | 0.02 | 0.00 | 90 | 1014.7 |
| 20260510062003 | 73 | 148 | 0.9 | 1.7 | 0.00 | 0.02 | 0.00 | 90 | 1014.8 |
| 20260510061509 | 73 | 107 | 0.0 | 1.7 | 0.00 | 0.02 | 0.00 | 90 | 1014.9 |
| 20260510061005 | 73 | 107 | 0.0 | 0.9 | 0.00 | 0.02 | 0.00 | 90 | 1014.9 |
| 20260510060506 | 73 | 107 | 0.0 | 1.7 | 0.00 | 0.02 | 0.00 | 90 | 1014.9 |
| 20260510060007 | 73 | 107 | 0.0 | 1.7 | 0.00 | 0.02 | 0.00 | 90 | 1015.0 |
| 20260510055503 | 73 | 105 | 0.0 | 1.7 | 0.00 | 0.02 | 0.00 | 90 | 1014.9 |
| 20260510055009 | 73 | 107 | 0.0 | 2.6 | 0.00 | 0.02 | 0.00 | 90 | 1015.1 |
| 20260510054512 | 73 | 130 | 0.0 | 2.6 | 0.00 | 0.02 | 0.00 | 90 | 1015.2 |
| 20260510054000 | 73 | 108 | 0.9 | 3.5 | 0.00 | 0.02 | 0.00 | 90 | 1015.3 |
| 20260510053509 | 73 | 115 | 0.9 | 3.5 | 0.00 | 0.02 | 0.00 | 90 | 1015.3 |
| 20260510053011 | 73 | 138 | 0.9 | 2.6 | 0.00 | 0.02 | 0.00 | 90 | 1015.3 |
| 20260510052504 | 73 | 96 | 0.9 | 2.6 | 0.00 | 0.02 | 0.00 | 90 | 1015.4 |
| 20260510052009 | 73 | 119 | 0.9 | 2.6 | 0.00 | 0.02 | 0.00 | 90 | 1015.5 |
| 20260510051504 | 73 | 95 | 0.0 | 1.7 | 0.00 | 0.02 | 0.00 | 90 | 1015.5 |
| 20260510051011 | 73 | 73 | 0.0 | 2.6 | 0.00 | 0.02 | 0.00 | 90 | 1015.5 |
| 20260510050503 | 73 | 75 | 0.0 | 2.6 | 0.00 | 0.02 | 0.00 | 89 | 1015.6 |
| 20260510050005 | 74 | 96 | 0.0 | 2.6 | 0.00 | 0.02 | 0.00 | 89 | 1015.5 |
| 20260510045507 | 74 | 86 | 0.0 | 2.6 | 0.00 | 0.02 | 0.00 | 90 | 1015.5 |
| 20260510045004 | 74 | 103 | 0.9 | 2.6 | 0.00 | 0.02 | 0.00 | 89 | 1015.6 |
| 20260510044509 | 74 | 87 | 0.9 | 2.6 | 0.00 | 0.02 | 0.00 | 89 | 1015.6 |
| 20260510044009 | 74 | 90 | 0.9 | 2.6 | 0.00 | 0.02 | 0.00 | 89 | 1015.6 |
| 20260510043504 | 74 | 82 | 0.9 | 2.6 | 0.00 | 0.02 | 0.00 | 89 | 1015.7 |
| 20260510043010 | 74 | 109 | 0.0 | 2.6 | 0.00 | 0.02 | 0.00 | 89 | 1015.8 |
| 20260510042507 | 75 | 86 | 0.9 | 4.3 | 0.00 | 0.02 | 0.00 | 89 | 1015.8 |
| 20260510042004 | 75 | 28 | 0.9 | 4.3 | 0.00 | 0.02 | 0.00 | 90 | 1015.9 |
| 20260510041513 | 75 | 35 | 1.7 | 3.5 | 0.00 | 0.02 | 0.00 | 90 | 1016.0 |
| 20260510041007 | 75 | 54 | 0.9 | 2.6 | 0.00 | 0.02 | 0.00 | 90 | 1016.0 |
| 20260510040508 | 75 | 45 | 0.9 | 2.6 | 0.00 | 0.02 | 0.00 | 90 | 1015.9 |
| 20260510040016 | 75 | 23 | 0.9 | 2.6 | 0.00 | 0.02 | 0.00 | 90 | 1016.0 |
| 20260510035505 | 75 | 13 | 0.9 | 3.5 | 0.00 | 0.02 | 0.02 | 90 | 1016.0 |
| 20260510035008 | 75 | 360 | 0.9 | 3.5 | 0.00 | 0.02 | 0.02 | 90 | 1015.9 |
| 20260510034512 | 75 | 355 | 0.0 | 2.6 | 0.00 | 0.02 | 0.02 | 90 | 1015.9 |
| 20260510034004 | 75 | 355 | 0.0 | 2.6 | 0.00 | 0.02 | 0.02 | 90 | 1015.8 |
| 20260510033509 | 75 | 352 | 1.7 | 2.6 | 0.00 | 0.02 | 0.02 | 90 | 1015.8 |
| 20260510033012 | 75 | 139 | 0.9 | 1.7 | 0.00 | 0.02 | 0.02 | 90 | 1015.6 |
| 20260510032512 | 75 | 139 | 0.0 | 0.9 | 0.01 | 0.02 | 0.02 | 90 | 1015.6 |
| 20260510032004 | 75 | 139 | 0.0 | 1.7 | 0.02 | 0.02 | 0.02 | 90 | 1015.5 |
| 20260510031510 | 76 | 139 | 0.0 | 1.7 | 0.02 | 0.02 | 0.02 | 90 | 1015.5 |
| 20260510031009 | 76 | 139 | 0.9 | 1.7 | 0.02 | 0.02 | 0.02 | 90 | 1015.4 |
| 20260510030507 | 76 | 163 | 0.0 | 1.7 | 0.02 | 0.02 | 0.02 | 90 | 1015.6 |
| 20260510030008 | 76 | 57 | 0.0 | 1.7 | 0.02 | 0.02 | 0.02 | 89 | 1015.4 |
| 20260510025507 | 76 | 57 | 0.9 | 1.7 | 0.02 | 0.02 | 0.02 | 89 | 1015.5 |
| 20260510025009 | 76 | 88 | 0.0 | 1.7 | 0.02 | 0.02 | 0.02 | 89 | 1015.4 |
| 20260510024512 | 76 | 88 | 0.0 | 0.9 | 0.02 | 0.02 | 0.02 | 88 | 1015.5 |
| 20260510024007 | 76 | 88 | 0.0 | 0.9 | 0.02 | 0.02 | 0.02 | 88 | 1015.5 |
| 20260510023504 | 77 | 88 | 0.0 | 1.7 | 0.02 | 0.02 | 0.02 | 87 | 1015.5 |
| 20260510023035 | 77 | 77 | 0.9 | 1.7 | 0.02 | 0.02 | 0.02 | 87 | 1015.4 |
| 20260510022507 | 77 | 180 | 0.0 | 4.3 | 0.01 | 0.01 | 0.01 | 86 | 1015.5 |
| 20260510022004 | 77 | 186 | 0.9 | 4.3 | 0.00 | 0.00 | 0.00 | 84 | 1015.4 |
| 20260510021524 | 77 | 178 | 1.7 | 3.5 | 0.00 | 0.00 | 0.00 | 84 | 1015.3 |
| 20260510021005 | 77 | 178 | 0.9 | 1.7 | 0.00 | 0.00 | 0.00 | 84 | 1015.3 |
| 20260510020507 | 76 | 235 | 0.0 | 1.7 | 0.00 | 0.00 | 0.00 | 84 | 1015.2 |
| 20260510020020 | 76 | 235 | 0.0 | 0.9 | 0.00 | 0.00 | 0.00 | 84 | 1015.2 |
| 20260510015508 | 76 | 296 | 0.0 | 0.0 | 0.00 | 0.00 | 0.00 | 84 | 1015.0 |
| 20260510015007 | 77 | 296 | 0.0 | 0.0 | 0.00 | 0.00 | 0.00 | 84 | 1015.1 |
| 20260510014519 | 77 | 296 | 0.0 | 0.9 | 0.00 | 0.00 | 0.00 | 84 | 1014.9 |
| 20260510014007 | 77 | 296 | 0.0 | 0.9 | 0.00 | 0.00 | 0.00 | 84 | 1014.8 |
| 20260510013507 | 77 | 296 | 0.0 | 1.7 | 0.00 | 0.00 | 0.00 | 83 | 1015.0 |
| 20260510013014 | 77 | 296 | 0.0 | 1.7 | 0.00 | 0.00 | 0.00 | 83 | 1014.9 |
| 20260510012507 | 77 | 296 | 0.9 | 1.7 | 0.00 | 0.00 | 0.00 | 82 | 1014.8 |
| 20260510012011 | 77 | 216 | 0.0 | 0.0 | 0.00 | 0.00 | 0.00 | 83 | 1014.6 |
| 20260510011518 | 78 | 216 | 0.0 | 0.9 | 0.00 | 0.00 | 0.00 | 82 | 1014.7 |
| 20260510011012 | 78 | 216 | 0.0 | 0.9 | 0.00 | 0.00 | 0.00 | 82 | 1014.8 |
| 20260510010508 | 78 | 216 | 0.0 | 0.0 | 0.00 | 0.00 | 0.00 | 82 | 1014.6 |
| 20260510010016 | 78 | 216 | 0.0 | 0.9 | 0.00 | 0.00 | 0.00 | 81 | 1014.5 |
| 20260510005508 | 78 | 216 | 0.0 | 1.7 | 0.00 | 0.00 | 0.00 | 81 | 1014.4 |
| 20260510005004 | 79 | 216 | 0.0 | 1.7 | 0.00 | 0.00 | 0.00 | 81 | 1014.4 |
| 20260510004507 | 79 | 216 | 0.9 | 2.6 | 0.00 | 0.00 | 0.00 | 80 | 1014.4 |
| 20260510004000 | 79 | 273 | 0.0 | 3.5 | 0.00 | 0.00 | 0.00 | 80 | 1014.4 |
| 20260510003501 | 79 | 311 | 1.7 | 4.3 | 0.00 | 0.00 | 0.00 | 80 | 1014.3 |
| 20260510003005 | 79 | 297 | 0.9 | 4.3 | 0.00 | 0.00 | 0.00 | 79 | 1014.2 |
| 20260510002504 | 79 | 5 | 0.9 | 3.5 | 0.00 | 0.00 | 0.00 | 80 | 1014.3 |
| 20260510002000 | 79 | 328 | 1.7 | 3.5 | 0.00 | 0.00 | 0.00 | 79 | 1014.3 |
| 20260510001504 | 80 | 339 | 0.9 | 6.1 | 0.00 | 0.00 | 0.00 | 80 | 1014.2 |
| 20260510001004 | 80 | 293 | 1.7 | 6.1 | 0.00 | 0.00 | 0.00 | 80 | 1014.2 |
| 20260510000504 | 80 | 271 | 1.7 | 5.2 | 0.00 | 0.00 | 0.00 | 80 | 1014.3 |
| 20260510000004 | 80 | 288 | 1.7 | 5.2 | 0.00 | 0.00 | 0.00 | 80 | 1014.3 |
| 20260509235503 | 80 | 305 | 0.9 | 3.5 | 0.00 | 0.00 | 0.00 | 77 | 1014.1 |
| 20260509235003 | 80 | 298 | 0.9 | 5.2 | 0.00 | 0.00 | 0.00 | 77 | 1013.8 |
| 20260509234503 | 80 | 331 | 1.7 | 6.1 | 0.00 | 0.00 | 0.00 | 77 | 1013.8 |
| 20260509234004 | 80 | 300 | 1.7 | 7.0 | 0.00 | 0.00 | 0.00 | 76 | 1014.0 |
| 20260509233505 | 80 | 277 | 3.5 | 8.7 | 0.00 | 0.00 | 0.00 | 76 | 1013.9 |
| 20260509233016 | 81 | 306 | 1.7 | 10.4 | 0.00 | 0.00 | 0.00 | 75 | 1013.9 |
| 20260509232502 | 81 | 296 | 5.2 | 10.4 | 0.00 | 0.00 | 0.00 | 75 | 1013.9 |
| 20260509232004 | 81 | 287 | 6.1 | 9.6 | 0.00 | 0.00 | 0.00 | 75 | 1013.9 |
| 20260509231509 | 81 | 301 | 1.7 | 9.6 | 0.00 | 0.00 | 0.00 | 74 | 1013.8 |
| 20260509231003 | 82 | 344 | 3.5 | 10.4 | 0.00 | 0.00 | 0.00 | 73 | 1013.7 |
| 20260509230503 | 82 | 304 | 6.1 | 12.2 | 0.00 | 0.00 | 0.00 | 72 | 1013.8 |
| 20260509230008 | 82 | 319 | 8.7 | 12.2 | 0.00 | 0.00 | 0.00 | 72 | 1013.8 |
| 20260509225504 | 82 | 274 | 5.2 | 10.4 | 0.00 | 0.00 | 0.00 | 71 | 1013.7 |
| 20260509225003 | 82 | 277 | 4.3 | 10.4 | 0.00 | 0.00 | 0.00 | 71 | 1013.6 |
| 20260509224504 | 83 | 294 | 6.1 | 12.2 | 0.00 | 0.00 | 0.00 | 70 | 1013.7 |
| 20260509224003 | 83 | 319 | 3.5 | 12.2 | 0.00 | 0.00 | 0.00 | 70 | 1013.8 |
| 20260509223511 | 83 | 299 | 5.2 | 12.2 | 0.00 | 0.00 | 0.00 | 70 | 1013.7 |
| 20260509223006 | 84 | 276 | 4.3 | 12.2 | 0.00 | 0.00 | 0.00 | 69 | 1013.6 |
| 20260509222503 | 84 | 308 | 3.5 | 12.2 | 0.00 | 0.00 | 0.00 | 69 | 1013.6 |
| 20260509222006 | 84 | 281 | 2.6 | 12.2 | 0.00 | 0.00 | 0.00 | 68 | 1013.4 |
| 20260509221504 | 84 | 290 | 5.2 | 11.3 | 0.00 | 0.00 | 0.00 | 67 | 1013.3 |
| 20260509221004 | 84 | 254 | 6.1 | 11.3 | 0.00 | 0.00 | 0.00 | 68 | 1013.3 |
| 20260509220505 | 84 | 265 | 3.5 | 12.2 | 0.00 | 0.00 | 0.00 | 67 | 1013.1 |
| 20260509220007 | 85 | 249 | 6.1 | 12.2 | 0.00 | 0.00 | 0.00 | 67 | 1013.2 |
| 20260509215504 | 85 | 263 | 3.5 | 10.4 | 0.00 | 0.00 | 0.00 | 65 | 1013.2 |
| 20260509215006 | 85 | 242 | 3.5 | 10.4 | 0.00 | 0.00 | 0.00 | 64 | 1013.0 |
| 20260509214504 | 85 | 303 | 2.6 | 12.2 | 0.00 | 0.00 | 0.00 | 65 | 1012.9 |
| 20260509214001 | 85 | 234 | 3.5 | 12.2 | 0.00 | 0.00 | 0.00 | 65 | 1012.9 |
| 20260509213505 | 85 | 279 | 5.2 | 13.9 | 0.00 | 0.00 | 0.00 | 65 | 1013.0 |
| 20260509213012 | 86 | 229 | 6.1 | 13.9 | 0.00 | 0.00 | 0.00 | 63 | 1012.8 |
| 20260509212508 | 86 | 186 | 5.2 | 12.2 | 0.00 | 0.00 | 0.00 | 62 | 1012.9 |
| 20260509212004 | 86 | 279 | 7.8 | 12.2 | 0.00 | 0.00 | 0.00 | 62 | 1012.8 |
| 20260509211507 | 87 | 226 | 3.5 | 12.2 | 0.00 | 0.00 | 0.00 | 64 | 1012.9 |
| 20260509211004 | 88 | 297 | 5.2 | 12.2 | 0.00 | 0.00 | 0.00 | 62 | 1012.8 |
| 20260509210504 | 88 | 267 | 7.0 | 12.2 | 0.00 | 0.00 | 0.00 | 61 | 1012.7 |
| 20260509210005 | 88 | 302 | 7.8 | 13.9 | 0.00 | 0.00 | 0.00 | 61 | 1012.6 |
| 20260509205506 | 88 | 260 | 7.8 | 13.9 | 0.00 | 0.00 | 0.00 | 60 | 1012.7 |
| 20260509205011 | 88 | 280 | 5.2 | 13.0 | 0.00 | 0.00 | 0.00 | 58 | 1012.7 |
| 20260509204504 | 88 | 257 | 5.2 | 13.0 | 0.00 | 0.00 | 0.00 | 59 | 1012.6 |
| 20260509204006 | 88 | 276 | 4.3 | 11.3 | 0.00 | 0.00 | 0.00 | 61 | 1012.7 |
| 20260509203510 | 87 | 277 | 6.1 | 13.9 | 0.00 | 0.00 | 0.00 | 60 | 1012.7 |
| 20260509203026 | 88 | 194 | 7.8 | 13.9 | 0.00 | 0.00 | 0.00 | 57 | 1012.8 |
| 20260509202507 | 88 | 248 | 7.8 | 13.9 | 0.00 | 0.00 | 0.00 | 59 | 1012.5 |
| 20260509202008 | 87 | 196 | 7.8 | 15.6 | 0.00 | 0.00 | 0.00 | 60 | 1012.6 |
| 20260509201510 | 88 | 184 | 6.1 | 15.6 | 0.00 | 0.00 | 0.00 | 58 | 1012.6 |
| 20260509201004 | 88 | 234 | 7.0 | 14.8 | 0.00 | 0.00 | 0.00 | 58 | 1012.6 |
| 20260509200507 | 88 | 203 | 5.2 | 12.2 | 0.00 | 0.00 | 0.00 | 58 | 1012.7 |
| 20260509200008 | 89 | 242 | 6.1 | 14.8 | 0.00 | 0.00 | 0.00 | 58 | 1012.7 |
| 20260509195509 | 88 | 265 | 7.8 | 14.8 | 0.00 | 0.00 | 0.00 | 57 | 1012.7 |
| 20260509195004 | 88 | 250 | 7.0 | 13.9 | 0.00 | 0.00 | 0.00 | 57 | 1012.8 |
| 20260509194505 | 88 | 287 | 6.1 | 13.9 | 0.00 | 0.00 | 0.00 | 58 | 1012.8 |